User: anonymous   Login
Location: Unspecified
(0.0000°N, 0.0000°E)
Time: 21:16:00
(UTC+01:00)
Language:

Cosmos 1072 Rocket - Orbit

View from above orbital plane
View from above orbital plane
View from above satellite
View from above satellite

Ground track
Ground track

The orbit data is extracted from the following two-line orbital elements,

1 11239U 79003B   14352.24521969  .00000081  00000-0  66997-4 0  4072
2 11239 082.9382 045.4433 0041758 061.6377 001.2482 13.75755532802468
Epoch (UTC): 18 December 2014 05:53:06
Eccentricity: 0.0041758
inclination: 82.9382°
perigee height: 948 km
apogee height: 1010 km
right ascension of ascending node: 45.4433°
argument of perigee: 61.6377°
revolutions per day: 13.75755532
mean anomaly at epoch: 1.2482°
orbit number at epoch: 80246

The dashed part of the orbit path shows where the satellite is in the earth's shadow,  

DLR